Location: Hartford
(41.7640°N, 72.6860°W)
Time: 00:58:17
(UTC-04:00)

ISS - Visible Passes

Search period start: 23 May 2017 00:00
Search period end: 02 June 2017 00:00
Orbit: 402 x 409 km, 51.6° (Epoch: 23 May)

Date Brightness Start Highest point End Pass type
(mag) Time Alt. Az. Time Alt. Az. Time Alt. Az.
23 May -0.6 01:27:13 10° NW 01:29:11 15° N 01:31:08 10° NE visible
23 May -1.2 03:03:55 10° NW 03:06:33 22° NNE 03:09:13 10° ENE visible
23 May -3.9 04:40:05 10° WNW 04:43:21 77° SW 04:46:37 10° SE visible
23 May -2.9 21:20:26 10° SSW 21:23:17 27° SE 21:26:08 10° ENE visible
23 May -2.4 22:56:34 10° W 22:59:41 38° NNW 23:02:48 10° NE visible
24 May -0.7 00:34:44 10° NW 00:36:51 16° N 00:38:58 10° NNE visible
24 May -0.8 02:11:58 10° NNW 02:14:18 18° NNE 02:16:37 10° ENE visible
24 May -3.2 03:48:04 10° NW 03:51:19 58° NNE 03:54:32 10° ESE visible
24 May -3.4 22:04:18 10° WSW 22:07:34 65° NNW 22:10:52 10° NE visible
24 May -0.9 23:42:09 10° WNW 23:44:33 18° NNW 23:46:57 10° NNE visible
25 May -0.6 01:19:55 10° NNW 01:21:59 15° N 01:24:03 10° NE visible
25 May -2.1 02:56:07 10° NW 02:59:11 35° NNE 03:02:14 10° E visible
25 May -3.0 04:32:42 10° WNW 04:35:38 30° SW 04:38:33 10° SSE visible
25 May -3.9 21:12:15 10° SW 21:15:31 68° SE 21:18:48 10° ENE visible
25 May -1.3 22:49:32 10° WNW 22:52:16 23° NNW 22:55:00 10° NE visible
26 May -0.5 00:27:41 10° NW 00:29:38 15° N 00:31:35 10° NE visible
26 May -1.4 02:04:12 10° NW 02:06:59 25° NNE 02:09:45 10° ENE visible
26 May -3.9 03:40:27 10° WNW 03:43:41 59° SW 03:46:54 10° SE visible
26 May -1.9 21:57:01 10° W 22:00:02 33° NNW 22:03:04 10° NE visible
26 May -0.6 23:35:14 10° NW 23:37:16 15° N 23:39:19 10° NNE visible
27 May -1.0 01:12:14 10° NNW 01:14:42 19° NNE 01:17:09 10° ENE visible
27 May -3.5 02:48:21 10° NW 02:53:58 18° ESE 02:54:53 10° ESE visible
27 May -2.0 04:27:42 13° SW 04:27:43 13° SW 04:29:19 10° SSW visible
27 May -2.9 21:04:37 10° WSW 21:07:51 52° NNW 21:11:06 10° NE visible
27 May -0.7 22:42:37 10° NW 22:44:55 17° NNW 22:47:12 10° NNE visible
28 May -0.7 00:20:12 10° NNW 00:22:21 16° N 00:24:31 10° NE visible
28 May -1.4 01:56:21 10° NW 01:57:31 19° NW 01:57:31 19° NW visible
28 May -1.1 21:49:58 10° WNW 21:52:35 21° NNW 21:55:12 10° NE visible
28 May -0.6 23:28:00 10° NW 23:29:58 15° N 23:31:57 10° NE visible
29 May -1.4 01:04:22 10° NW 01:06:17 23° N 01:06:17 23° N visible
29 May -1.6 20:57:21 10° W 21:00:17 28° NNW 21:03:13 10° NE visible
29 May -0.7 22:35:35 10° NW 22:37:34 15° N 22:39:33 10° NE visible
30 May -1.3 00:12:23 10° NW 00:14:58 21° NNE 00:15:25 20° NNE visible
30 May -0.8 21:42:59 10° NW 21:45:10 16° N 21:47:21 10° NNE visible
30 May -0.9 23:20:21 10° NNW 23:22:37 17° NNE 23:24:43 11° NE visible
31 May -1.1 00:56:27 10° NW 00:57:20 17° NW 00:57:20 17° NW visible
31 May -1.0 20:50:17 10° WNW 20:52:47 19° NNW 20:55:16 10° NNE visible
31 May -0.8 22:28:10 10° NNW 22:30:12 15° N 22:32:13 10° NE visible
01 Jun -1.8 00:04:26 10° NW 00:06:43 28° N 00:06:43 28° N visible
01 Jun -0.9 21:35:47 10° NW 21:37:46 15° N 21:39:43 10° NE visible
01 Jun -1.6 23:12:25 10° NW 23:15:08 23° NNE 23:16:09 20° NE visible
